Location: Guayaquil
(2.1667°S, 79.9000°W)
Time: 18:29:57
(UTC-05:00)

DNEPR OBJECT AB - Pass Details

Date: 28 March 2018
Orbit: 587 x 704 km, 97.6° (Epoch: 13 November)

Event Time Altitude Azimuth Distance (km) Brightness Sun altitude
Rises 19:32:39 0° 189° (S) 3,042 ? -17.1°
Reaches altitude 10° 19:35:13 10° 201° (SSW) 2,106 ? -17.8°
Maximum altitude 19:39:02 26° 257° (WSW) 1,293 ? -18.7°
Drops below altitude 10° 19:42:44 10° 314° (NW) 2,037 ? -19.6°
Sets 19:45:11 0° 327° (NNW) 2,921 ? -20.2°
